Weather Roundup
Issued by NWS Chicago, IL

Home | Current Version | Previous Version | Graphics & Text | Print | Product List | Glossary On
Versions: 1 2 3 4 5 6 7 8 9 10 11 12 13 14 15 16 17 18 19 20 21 22 23 24 25 26 27 28 29 30 31 32 33 34 35 36 37 38 39 40 41 42 43 44 45 46 47 48 49 50
170
NZUS59 KLOT 290703
HRRLOT

CHICAGO AREA WEATHER ROUNDUP
NATIONAL WEATHER SERVICE CHICAGO/ROMEOVILLE IL
200 AM CDT FRI JUL 29 2016

NOTE: "FAIR" INDICATES FEW OR NO CLOUDS BELOW 12,000 FEET WITH NO
SIGNIFICANT WEATHER AND/OR OBSTRUCTIONS TO VISIBILITY.

* THESE STATIONS ARE NOT UNDER NWS QUALITY CONTROL. THEY ALSO MAY NOT
  REPORT WEATHER SUCH AS PRECIPITATION OR FOG.

ILZ005-006-012>014-019>023-290800-
NORTHEAST ILLINOIS

CITY           SKY/WX    TMP DP  RH WIND       PRES   REMARKS
OHARE          CLOUDY    70  68  93 N8        29.92S
MIDWAY         CLOUDY    72  69  90 N8        29.91S FOG
AURORA         CLOUDY    71  69  93 NE8       29.92S FOG
LANSING*       CLEAR     71  69  93 CALM      29.91S FOG
WAUKEGAN       CLOUDY    69  67  93 N6        29.94R
DUPAGE AIRPORT CLOUDY    70  68  93 N7        29.92F FOG
WHEELING       CLOUDY    69  68  96 N7        29.94S
KANKAKEE*      FOG       70  69  96 CALM      29.91S VSB<1/4
MORRIS*          N/A     69  68  97 CALM      29.91R FOG
NORTHERLY ISL    N/A     71  69  93 N7          N/A
$$

WIZ051-052-058>065-066-070>072-290800-
SOUTHEAST WISCONSIN

CITY           SKY/WX    TMP DP  RH WIND       PRES   REMARKS
MILWAUKEE      CLOUDY    69  64  84 N16G25    29.96R
KENOSHA*       CLOUDY    68  65  90 N7        29.95S
RACINE*        CLOUDY    68  64  87 N9        29.97S
BURLINGTON     CLOUDY    67  64  92 N5        29.96S
WAUKESHA       CLOUDY    64  61  88 NE12      29.98S
$$

INZ001>003-010>013-019-020-290800-
NORTHWEST INDIANA

CITY           SKY/WX    TMP DP  RH WIND       PRES   REMARKS
GARY*          CLEAR     69  69 100 NW3       29.92R
MICHIGAN CITY* NOT AVBL
RENSSELAER*    NOT AVBL
VALPARAISO     CLEAR     68  65  90 CALM      29.91F
$$

LMZ740>746-290800-
SOUTHERN LAKE MICHIGAN

STATION/POSITION TIME  SKY/WX   TEMP WIND        PRES    VSBY
                                AIR  DIR/SP/G
                 (UTC)          (F)  (DEG/KT/KT) (MB)    (MI)
HARRISON CRIB    0600            71  340/ 12/ 13   N/A
BURNHAM HARBOR   0700            71  340/  4/  9   N/A
CALUMET HARBOR   0600            72   20/  2/  3 1012.2F
BURNS HARBOR     0602            74   CALM  /  7 1013.2F
MICHIGAN CITY    0600            71   90/  3/  3   N/A
$$

ABBREVIATIONS USED IN REMARKS
   TC - TEMPERATURE IN CELSIUS
  WCI - WIND CHILL INDEX
   HX - HEAT INDEX
  VSB - VISIBILITY
$$




USA.gov is the U.S. government's official web portal to all federal, state and local government web resources and services.